This is the latest recevied weather packets stored in our database for station/object DB0NH-2. If no packets are shown the sender has not sent any weather packets the latest 1 day(s).
| Time | Temp. | Humidity | Pressure | Rain* | Wind** | Luminosity | Snow |
|---|---|---|---|---|---|---|---|
| 1777986368 | 21.11° C | 53% | 1007.2 hPa | 0 mm | 0.89 m/s, 42° | 473 W/m² | - |
| 1777985768 | 20° C | 55% | 1007.4 hPa | 0 mm | 0.45 m/s, 27° | 509 W/m² | - |
| 1777985168 | 20° C | 55% | 1007.5 hPa | 0 mm | 0.45 m/s, 32° | 224 W/m² | - |
| 1777984568 | 20° C | 54% | 1007.5 hPa | 0 mm | 0.89 m/s, 39° | 188 W/m² | - |
| 1777983968 | 20.56° C | 52% | 1007.6 hPa | 0 mm | 0.45 m/s, 65° | 299 W/m² | - |
| 1777983368 | 20° C | 51% | 1007.8 hPa | 0 mm | 0.45 m/s, 34° | 305 W/m² | - |
| 1777982768 | 20° C | 52% | 1007.8 hPa | 0 mm | 0.89 m/s, 61° | 328 W/m² | - |
| 1777982168 | 20.56° C | 52% | 1007.9 hPa | 0 mm | 0.89 m/s, 107° | 386 W/m² | - |
| 1777981568 | 20° C | 53% | 1008 hPa | 0 mm | 0.45 m/s, 35° | 436 W/m² | - |
| 1777980968 | 20° C | 55% | 1008.1 hPa | 0 mm | 1.34 m/s, 49° | 504 W/m² | - |
| 1777980368 | 20° C | 55% | 1008.1 hPa | 0 mm | 0.89 m/s, 137° | 548 W/m² | - |
| 1777979768 | 20° C | 54% | 1008.2 hPa | 0 mm | 0.45 m/s, 45° | 641 W/m² | - |
| 1777979169 | 20° C | 56% | 1008.3 hPa | 0 mm | 1.79 m/s, 51° | 613 W/m² | - |
| 1777978568 | 20° C | 55% | 1008.3 hPa | 0 mm | 0.89 m/s, 27° | 620 W/m² | - |
| 1777977968 | 20° C | 57% | 1008.4 hPa | 0 mm | 0.89 m/s, 33° | 638 W/m² | - |
| 1777977368 | 19.44° C | 58% | 1008.4 hPa | 0 mm | 0.89 m/s, 32° | 623 W/m² | - |
| 1777976768 | 18.89° C | 59% | 1008.5 hPa | 0 mm | 1.79 m/s, 64° | 630 W/m² | - |
| 1777976170 | 19.44° C | 64% | 1008.7 hPa | 0 mm | 1.79 m/s, 70° | 744 W/m² | - |
| 1777975567 | 18.89° C | 70% | 1008.8 hPa | 0 mm | 0.89 m/s, 57° | 805 W/m² | - |
| 1777974968 | 18.33° C | 71% | 1009 hPa | 0 mm | 1.34 m/s, 60° | 705 W/m² | - |
| 1777974368 | 18.33° C | 72% | 1008.9 hPa | 0 mm | 0.89 m/s, 69° | 683 W/m² | - |
| 1777973768 | 17.78° C | 72% | 1009 hPa | 0 mm | 1.79 m/s, 64° | 725 W/m² | - |
| 1777973168 | 17.78° C | 74% | 1009 hPa | 0 mm | 1.34 m/s, 61° | 741 W/m² | - |
| 1777972568 | 17.22° C | 77% | 1009.1 hPa | 0 mm | 0.89 m/s, 55° | 756 W/m² | - |
| 1777971968 | 16.67° C | 78% | 1009.2 hPa | 0 mm | 1.34 m/s, 52° | 663 W/m² | - |
* Rain latest hour (hover to see other rain measurements)
** Current wind speed in m/s (hover to see current wind gust speed)